Location: Unspecified
(0.0000°N, 0.0000°E)
Time: 10:40:59
(UTC+00:00)

Explorer 11/Cluster Stage 4 - Pass Details

Date: 05 October 2020
Orbit: 467 x 1258 km, 28.8° (Epoch: 28 October)

Event Time Altitude Azimuth Distance (km) Brightness Sun altitude
Rises 03:25:29 0° 326° (NNW) 3,528 - -35.6°
Reaches altitude 10° 03:28:36 10° 342° (NNW) 2,729 - -34.8°
Exits shadow 03:31:58 20° 11° (NNE) 2,216 8.8 -34.0°
Maximum altitude 03:33:39 22° 30° (NNE) 2,185 9.0 -33.5°
Drops below altitude 10° 03:39:17 10° 77° (ENE) 3,101 10.4 -32.1°
Sets 03:43:04 0° 91° (E) 4,143 11.4 -31.2°
